カタログに戻る

THOR ABLESTAR DEB

運用中LEO
NORAD 132·DEBRIS·🇺🇸 United States

打ち上げ Jun 29, 1961 から Cape Canaveral Space Force Station

Loading…

次のパス (今後24時間)

TLE

最新Source: Space-Track

元期: Sep 7, 2026, 02:45 UTC

1 00132U 61015S   26250.11515934 -.00000031  00000-0  34369-4 0  9997
2 00132  66.6594 129.3605 0069712 138.8962 221.7400 13.94783017315099

AllMySatでTHOR ABLESTAR DEBをリアルタイム追跡

Download on the App Store